SCP
0 0 0 0 0 0 0 0 0 0 0 0 0 0 0 0 0 0 0 0 0 0 0 0 0 0 0 0 0 0 0 0 0 -0 -0 -0 -0 -0 -0 0 0 1 1 0
0 0 0 0 0 0 0 0 0 0 0 0 0 0 0 0 0 0 0 0 0 0 0 0 0 0 0 0 0 0 0 0 0 0 0 0 -0 0 -0 -0 -0 0 0 1
0 0 0 0 0 0 0 0 0 0 0 0 0 0 0 0 0 0 0 0 0 0 0 0 0 0 0 0 0 0 0 0 0 0 0 0 0 -0 -0 -0 -0 -0 0 0
0 0 0 0 0 0 0 0 0 0 0 0 0 0 0 0 0 0 0 0 0 0 0 0 0 0 0 0 0 0 0 0 0 0 0 0 0 -0 -0 -0 -0 -0 -0 0
0 0 0 0 0 0 0 0 0 0 0 0 0 0 0 0 0 0 0 0 0 0 0 0 0 0 0 0 0 0 0 0 0 0 0 0 0 -0 -0 -0 -0 -0 -0 -0
0 0 0 0 0 0 0 0 0 0 0 0 0 0 0 0 0 0 0 0 0 0 0 0 0 0 0 0 0 0 0 0 0 0 -0 0 0 -0 -0 -0 -0 -0 -0 -0
0 0 0 0 0 0 0 0 0 0 0 0 0 0 0 0 0 0 0 0 0 0 0 0 0 0 0 0 0 0 0 0 0 -0 -0 -0 -0 0 -0 -0 -0 -0 -0 -0
0 0 0 0 0 0 0 0 0 0 0 0 0 0 0 0 0 0 0 0 0 0 0 0 0 0 0 0 0 0 0 0 0 0 0 0 -0 -0 0 -0 -0 -0 -0 -0
0 0 0 0 0 0 0 0 0 0 0 0 0 0 0 0 0 0 0 0 0 0 0 0 0 0 0 0 0 0 0 0 -0 -0 -0 0 0 0 0 0 -0 -0 -0 -0
0 0 0 0 0 0 0 0 0 0 0 0 0 0 0 0 0 0 0 0 0 0 0 0 0 0 0 0 0 0 0 0 -0 -0 0 -0 0 0 0 0 0 -0 -0 -0
0 0 0 0 0 0 0 0 0 0 0 0 0 0 0 0 0 0 0 0 0 0 0 0 0 0 0 0 0 0 0 0 -0 -0 0 0 -0 0 0 0 0 -0 -0 -0
0 0 0 0 0 0 0 0 0 0 0 0 0 0 0 0 0 0 0 0 0 0 0 0 0 0 0 0 0 0 0 0 0 0 0 0 0 0 0 0 0 0 -0 -0
0 0 0 0 0 0 0 0 0 0 0 0 0 0 0 0 0 0 0 0 0 0 0 0 0 0 0 0 0 0 0 0 0 0 0 0 0 0 0 0 0 0 0 0
0 0 0 0 0 0 0 0 0 0 0 0 0 0 0 0 0 0 0 0 0 0 0 0 0 0 0 0 0 0 0 0 0 0 0 0 0 0 0 0 0 0 0 0
0 0 0 0 0 0 0 0 0 0 0 0 0 0 0 0 0 0 0 0 0 0 0 0 0 0 0 0 0 0 0 0 0 0 0 0 0 0 0 0 -0 -0 -0 -0
0 0 0 0 0 0 0 0 0 0 0 0 0 0 0 0 0 0 0 0 0 0 0 0 0 0 0 0 0 0 0 0 0 0 0 0 0 0 -0 0 -0 -0 -0 -0
0 0 0 0 0 0 0 0 0 0 0 0 0 0 0 0 0 0 0 0 0 0 0 0 0 0 0 0 0 0 0 0 0 0 0 0 0 0 -0 0 0 0 -0 -0
0 0 0 0 0 0 0 0 0 0 0 0 0 0 0 0 0 0 0 0 0 0 0 0 0 0 0 0 0 0 0 0 0 0 0 0 0 0 -0 0 0 0 -0 -0
0 0 0 0 0 0 0 0 0 0 0 0 0 0 0 0 0 0 0 0 0 0 0 0 0 0 0 0 0 0 0 0 0 0 0 0 0 0 0 0 0 0 0 0
0 0 0 0 0 0 0 0 0 0 0 0 0 0 0 0 0 0 0 0 0 0 0 0 0 0 0 0 0 0 0 0 0 0 0 0 0 0 0 0 0 0 0 0
0 0 0 0 0 0 0 0 0 0 0 0 0 0 0 0 0 0 0 0 0 0 0 0 0 0 0 0 0 0 0 0 0 0 0 0 0 0 0 0 0 0 0 0
0 0 0 0 0 0 0 0 0 0 0 0 0 0 0 0 0 0 0 0 0 0 0 0 0 0 0 0 0 0 0 0 0 0 0 0 -0 -0 0 0 0 0 0 0
0 0 0 0 0 0 0 0 0 0 0 0 0 0 0 0 0 0 0 0 0 0 0 0 0 0 0 0 0 0 0 0 0 0 0 0 -0 -0 -0 0 0 0 0 0
0 0 0 0 0 0 0 0 0 0 0 0 0 0 0 0 0 0 0 0 0 0 0 0 0 0 0 0 0 0 0 -0 0 0 -0 -0 -0 -0 -0 0 0 0 0 0
0 0 0 0 0 0 0 0 0 0 0 0 0 0 0 0 0 0 0 0 0 0 0 0 0 0 0 0 -0 0 0 -0 -0 0 0 -0 -0 -0 -0 -0 0 0 0 0
0 0 0 0 0 0 0 0 0 0 0 0 0 0 0 0 0 0 0 0 0 0 0 0 0 0 0 0 -0 0 -0 -0 -0 -0 0 0 -0 -0 -0 -0 0 0 0 0
Wind_Speed_500mb
13 12 19 7 13 20 21 21 26 28 13 14 25 31 14 32 20 13 15 24 33 40 44 49 52 56 58 62 64 62 67 70 73 77 72 75 74 74 81 60 68 75 83 91
24 26 8 13 12 13 23 31 29 14 6 22 29 33 35 29 15 10 11 23 33 42 52 57 56 60 65 70 73 68 70 74 71 70 72 69 79 81 79 84 71 85 81 86
20 25 7 9 16 25 25 29 19 19 26 33 29 36 31 28 22 10 8 21 31 47 59 60 60 70 75 77 79 81 77 86 84 79 75 78 72 85 80 70 88 91 66 87
20 7 9 15 23 8 25 10 19 28 27 22 35 16 27 37 27 7 12 27 43 61 64 61 69 87 81 91 90 86 82 84 83 78 78 76 76 71 82 90 81 90 91 90
7 10 16 23 14 5 12 19 20 31 36 42 27 14 20 36 29 5 16 33 50 63 59 68 82 90 92 94 97 100 92 95 86 79 79 81 81 73 73 85 92 82 85 85
30 2 6 10 4 5 17 20 35 39 25 13 3 5 13 8 4 6 22 44 62 64 64 70 87 89 97 103 105 98 94 99 87 87 87 85 83 83 78 79 90 83 71 76
11 17 3 5 12 13 15 18 14 7 9 18 19 15 23 19 10 9 26 50 59 57 64 78 93 94 105 109 110 102 96 101 98 95 90 90 87 82 79 82 82 86 83 64
15 17 15 6 6 9 2 6 7 14 13 27 28 17 10 25 18 4 34 55 54 60 70 85 93 93 100 104 100 98 99 87 85 81 81 82 82 79 74 79 76 89 75 71
9 12 7 6 2 4 12 11 8 10 7 12 15 21 12 22 7 15 43 54 55 63 75 86 90 95 101 99 95 97 106 104 103 98 87 72 64 73 78 78 77 87 81 71
1 17 9 9 1 2 8 11 5 8 9 14 15 39 23 13 16 25 44 53 58 71 81 85 84 95 97 103 104 105 98 96 98 91 85 96 89 67 55 73 78 73 75 79
1 9 7 6 18 25 10 11 12 9 8 9 18 12 10 8 9 31 44 55 65 77 87 89 96 99 100 104 103 102 99 96 94 89 82 82 82 94 70 58 73 75 77 72
12 7 18 27 5 11 14 23 29 12 14 16 17 30 27 9 9 34 49 58 69 75 82 86 94 91 95 97 101 99 95 92 90 89 91 87 84 80 87 74 58 54 73 67
17 12 8 8 7 7 12 21 35 31 10 30 19 19 15 23 40 50 53 61 68 74 81 86 91 90 95 102 104 97 98 93 88 95 87 88 89 82 77 89 70 58 53 57
17 13 25 25 26 2 13 27 34 34 23 33 42 59 40 41 34 48 57 61 69 72 78 87 91 93 96 99 105 101 98 101 92 87 93 88 82 88 89 83 90 81 56 40
9 19 28 37 38 31 32 32 36 43 48 41 55 43 42 37 39 44 58 66 72 71 79 83 94 97 100 107 113 108 104 94 99 91 90 96 89 87 79 87 90 102 93 71
12 10 10 11 26 30 38 38 43 46 48 51 50 58 43 49 32 48 58 67 66 67 78 83 95 102 107 102 111 117 112 107 100 99 92 90 88 78 79 93 88 87 106 108
16 12 9 17 8 18 29 43 50 52 42 39 41 48 36 29 28 44 59 57 56 67 73 78 88 94 98 105 108 115 113 114 107 98 94 94 86 74 74 86 82 77 78 89
20 15 9 8 8 17 6 4 3 25 34 36 36 36 34 28 38 42 56 39 59 66 71 76 85 98 111 114 110 116 112 108 102 99 95 87 84 78 83 68 81 77 70 73
16 18 8 9 16 26 29 17 14 18 18 34 34 25 23 35 40 37 26 37 53 64 73 76 84 90 112 106 112 123 113 101 102 95 91 93 90 87 82 72 72 76 64 61
24 23 17 9 10 14 6 15 18 9 22 25 22 16 21 20 19 23 45 45 51 55 64 80 90 108 111 113 112 122 112 103 98 102 102 97 92 85 80 73 62 71 60 56
21 13 31 23 13 19 20 28 14 6 5 32 14 18 20 14 23 47 52 56 53 60 76 88 100 106 109 112 110 130 110 103 107 107 105 91 79 72 62 53 46 58 55 61
28 22 14 18 17 27 30 30 16 7 24 19 15 15 17 22 29 37 43 52 63 74 78 80 97 110 111 110 105 127 115 112 112 110 99 92 83 76 61 45 35 43 38 48
18 17 14 23 17 5 53 21 53 15 13 9 14 13 20 27 27 37 46 51 59 63 69 77 95 107 109 109 106 123 123 114 116 107 103 97 87 62 51 48 30 32 28 34
20 33 11 11 18 28 28 48 25 26 22 19 22 22 25 27 31 40 47 55 62 63 71 83 95 101 107 106 108 114 118 111 110 106 100 95 82 68 54 34 26 26 25 30
16 31 25 28 24 17 22 41 37 36 33 29 27 27 28 28 32 39 48 53 55 60 68 75 83 92 99 101 105 111 116 106 108 102 94 93 87 71 54 34 39 29 37 43
23 19 27 17 29 31 19 23 31 38 36 32 33 32 30 28 31 37 44 48 51 61 68 74 77 85 94 95 98 104 109 100 99 100 100 93 89 78 64 52 33 19 34 37
Wind_Direction_500mb
330 298 299 322 326 303 299 290 293 290 112 306 304 300 335 125 136 122 49 23 16 13 357 352 351 349 348 347 338 332 334 329 328 324 318 317 316 307 293 296 291 268 258 246
298 290 19 312 301 292 293 291 298 313 191 310 308 297 134 156 142 129 37 20 11 358 350 349 350 349 345 341 338 326 322 328 317 312 310 310 308 306 314 294 284 290 258 247
284 293 325 287 295 295 288 302 316 298 305 282 286 283 157 173 154 135 32 3 358 353 351 351 352 345 339 334 331 326 320 317 317 305 305 306 305 305 305 308 286 274 297 252
283 358 300 284 278 300 297 12 316 304 310 302 317 290 169 181 179 130 18 4 354 350 353 352 344 340 335 329 325 320 315 313 312 304 299 300 302 297 302 304 312 292 268 293
295 294 289 281 300 331 297 342 303 290 285 298 277 242 258 166 200 103 9 359 354 352 348 346 340 334 329 325 322 317 311 312 308 303 295 296 294 295 295 297 300 318 280 279
268 282 255 288 265 266 303 287 299 275 268 263 142 260 237 183 181 356 357 355 352 347 343 336 334 328 325 324 320 316 310 309 307 301 298 292 291 291 293 289 293 304 298 277
195 216 179 243 259 210 261 307 313 298 232 276 152 317 248 142 128 36 356 353 346 342 336 333 330 328 325 324 322 318 317 310 308 302 298 292 290 285 288 285 285 297 313 296
275 267 186 141 269 342 316 291 263 288 295 294 313 254 294 135 142 10 352 351 344 336 332 330 328 326 325 323 321 316 318 317 312 309 304 295 291 282 283 282 278 287 301 302
252 248 124 32 341 285 139 215 14 288 261 278 237 239 142 159 215 350 342 347 340 331 329 328 326 327 326 326 323 318 315 311 304 299 291 290 299 288 282 280 277 280 291 305
359 284 173 117 190 159 264 123 180 201 270 269 268 299 273 188 340 340 345 339 333 328 326 328 328 328 329 327 325 323 320 314 310 309 301 289 284 285 296 281 274 275 283 293
168 236 149 149 209 226 186 217 222 285 241 263 299 283 114 5 358 345 333 334 330 330 329 329 328 330 328 329 326 323 321 318 314 309 311 306 299 277 276 293 278 272 277 283
187 248 253 246 46 285 273 244 215 217 216 226 266 275 281 224 355 343 333 330 329 328 326 324 328 327 328 328 327 324 322 318 313 310 306 305 303 296 283 275 285 284 270 274
173 206 250 236 244 181 216 222 234 234 308 245 251 256 155 210 328 337 328 325 325 326 322 325 325 327 328 330 329 325 321 318 314 311 308 303 303 304 294 272 272 274 277 282
184 228 229 255 295 101 215 215 216 213 240 259 240 270 274 291 313 324 319 321 321 321 323 324 324 326 327 330 329 324 321 319 315 312 306 304 303 297 299 288 269 262 264 279
218 252 241 261 273 278 259 255 222 221 236 244 269 262 278 298 315 319 313 319 321 320 325 324 323 323 328 328 328 326 322 320 317 312 307 301 302 301 297 297 285 264 256 257
205 251 291 273 267 274 271 257 247 246 242 246 258 271 275 285 311 309 315 318 315 320 323 322 319 322 324 323 326 325 320 319 318 311 308 305 302 299 292 295 290 278 261 254
198 203 197 263 8 318 280 246 238 240 232 235 246 256 279 291 309 311 311 309 313 319 319 319 315 317 319 321 323 324 318 318 317 313 308 307 306 298 296 292 292 282 270 267
193 183 165 267 17 256 315 323 239 248 225 225 245 261 275 298 300 308 299 316 321 319 318 317 317 319 325 327 324 327 321 317 317 312 310 310 306 300 290 287 284 283 275 260
212 178 196 230 205 302 297 221 212 204 246 232 241 258 270 290 307 294 335 329 316 316 316 317 318 321 328 327 328 332 322 318 318 315 313 309 307 304 300 285 284 283 269 250
201 205 208 162 223 243 93 133 105 132 273 218 214 210 267 300 295 305 328 325 319 317 321 324 327 331 338 336 333 334 325 321 321 318 316 312 307 302 295 285 277 279 259 252
190 193 221 215 231 269 245 155 132 166 259 155 185 242 256 247 278 304 318 321 322 323 326 333 334 337 342 341 335 337 329 324 323 321 322 324 325 319 309 291 271 274 256 240
178 181 198 207 218 254 187 145 202 184 156 204 233 247 238 273 297 307 313 318 326 328 331 334 338 339 346 346 337 342 334 330 330 333 340 340 337 331 324 300 268 267 253 249
203 199 184 200 206 129 172 195 209 193 220 254 248 239 279 294 299 307 315 323 327 328 329 335 340 339 346 348 348 344 342 339 342 347 347 341 336 334 326 313 276 267 241 254
228 216 231 184 224 240 216 235 250 232 246 252 270 262 283 290 301 313 320 327 330 331 336 341 341 341 345 349 351 351 348 350 352 349 346 345 349 349 349 318 278 264 249 249
184 174 210 246 253 251 245 237 236 235 256 266 258 269 281 292 308 318 324 329 329 333 338 342 341 340 346 350 351 355 351 356 358 357 348 354 355 356 350 345 317 261 258 263
190 181 200 218 219 222 225 240 236 233 246 247 253 264 273 292 307 317 326 328 331 337 341 343 345 345 348 351 354 357 353 360 3 4 357 2 359 1 5 2 336 305 283 277
Wind_Speed_850mb
13 12 19 7 13 20 21 21 26 28 13 14 25 31 14 32 20 13 15 24 33 40 44 49 52 56 58 62 64 62 67 70 73 77 72 75 74 74 81 60 68 75 83 91
24 26 8 13 12 13 23 31 29 14 6 22 29 33 35 29 15 10 11 23 33 42 52 57 56 60 65 70 73 68 70 74 71 70 72 69 79 81 79 84 71 85 81 86
20 25 7 9 16 25 25 29 19 19 26 33 29 36 31 28 22 10 8 21 31 47 59 60 60 70 75 77 79 81 77 86 84 79 75 78 72 85 80 70 88 91 66 87
20 7 9 15 23 8 25 10 19 28 27 22 35 16 27 37 27 7 12 27 43 61 64 61 69 87 81 91 90 86 82 84 83 78 78 76 76 71 82 90 81 90 91 90
7 10 16 23 14 5 12 19 20 31 36 42 27 14 20 36 29 5 16 33 50 63 59 68 82 90 92 94 97 100 92 95 86 79 79 81 81 73 73 85 92 82 85 85
30 2 6 10 4 5 17 20 35 39 25 13 3 5 13 8 4 6 22 44 62 64 64 70 87 89 97 103 105 98 94 99 87 87 87 85 83 83 78 79 90 83 71 76
11 17 3 5 12 13 15 18 14 7 9 18 19 15 23 19 10 9 26 50 59 57 64 78 93 94 105 109 110 102 96 101 98 95 90 90 87 82 79 82 82 86 83 64
15 17 15 6 6 9 2 6 7 14 13 27 28 17 10 25 18 4 34 55 54 60 70 85 93 93 100 104 100 98 99 87 85 81 81 82 82 79 74 79 76 89 75 71
9 12 7 6 2 4 12 11 8 10 7 12 15 21 12 22 7 15 43 54 55 63 75 86 90 95 101 99 95 97 106 104 103 98 87 72 64 73 78 78 77 87 81 71
1 17 9 9 1 2 8 11 5 8 9 14 15 39 23 13 16 25 44 53 58 71 81 85 84 95 97 103 104 105 98 96 98 91 85 96 89 67 55 73 78 73 75 79
1 9 7 6 18 25 10 11 12 9 8 9 18 12 10 8 9 31 44 55 65 77 87 89 96 99 100 104 103 102 99 96 94 89 82 82 82 94 70 58 73 75 77 72
12 7 18 27 5 11 14 23 29 12 14 16 17 30 27 9 9 34 49 58 69 75 82 86 94 91 95 97 101 99 95 92 90 89 91 87 84 80 87 74 58 54 73 67
17 12 8 8 7 7 12 21 35 31 10 30 19 19 15 23 40 50 53 61 68 74 81 86 91 90 95 102 104 97 98 93 88 95 87 88 89 82 77 89 70 58 53 57
17 13 25 25 26 2 13 27 34 34 23 33 42 59 40 41 34 48 57 61 69 72 78 87 91 93 96 99 105 101 98 101 92 87 93 88 82 88 89 83 90 81 56 40
9 19 28 37 38 31 32 32 36 43 48 41 55 43 42 37 39 44 58 66 72 71 79 83 94 97 100 107 113 108 104 94 99 91 90 96 89 87 79 87 90 102 93 71
12 10 10 11 26 30 38 38 43 46 48 51 50 58 43 49 32 48 58 67 66 67 78 83 95 102 107 102 111 117 112 107 100 99 92 90 88 78 79 93 88 87 106 108
16 12 9 17 8 18 29 43 50 52 42 39 41 48 36 29 28 44 59 57 56 67 73 78 88 94 98 105 108 115 113 114 107 98 94 94 86 74 74 86 82 77 78 89
20 15 9 8 8 17 6 4 3 25 34 36 36 36 34 28 38 42 56 39 59 66 71 76 85 98 111 114 110 116 112 108 102 99 95 87 84 78 83 68 81 77 70 73
16 18 8 9 16 26 29 17 14 18 18 34 34 25 23 35 40 37 26 37 53 64 73 76 84 90 112 106 112 123 113 101 102 95 91 93 90 87 82 72 72 76 64 61
24 23 17 9 10 14 6 15 18 9 22 25 22 16 21 20 19 23 45 45 51 55 64 80 90 108 111 113 112 122 112 103 98 102 102 97 92 85 80 73 62 71 60 56
21 13 31 23 13 19 20 28 14 6 5 32 14 18 20 14 23 47 52 56 53 60 76 88 100 106 109 112 110 130 110 103 107 107 105 91 79 72 62 53 46 58 55 61
28 22 14 18 17 27 30 30 16 7 24 19 15 15 17 22 29 37 43 52 63 74 78 80 97 110 111 110 105 127 115 112 112 110 99 92 83 76 61 45 35 43 38 48
18 17 14 23 17 5 53 21 53 15 13 9 14 13 20 27 27 37 46 51 59 63 69 77 95 107 109 109 106 123 123 114 116 107 103 97 87 62 51 48 30 32 28 34
20 33 11 11 18 28 28 48 25 26 22 19 22 22 25 27 31 40 47 55 62 63 71 83 95 101 107 106 108 114 118 111 110 106 100 95 82 68 54 34 26 26 25 30
16 31 25 28 24 17 22 41 37 36 33 29 27 27 28 28 32 39 48 53 55 60 68 75 83 92 99 101 105 111 116 106 108 102 94 93 87 71 54 34 39 29 37 43
23 19 27 17 29 31 19 23 31 38 36 32 33 32 30 28 31 37 44 48 51 61 68 74 77 85 94 95 98 104 109 100 99 100 100 93 89 78 64 52 33 19 34 37
Wind_Direction_850mb
330 298 299 322 326 303 299 290 293 290 112 306 304 300 335 125 136 122 49 23 16 13 357 352 351 349 348 347 338 332 334 329 328 324 318 317 316 307 293 296 291 268 258 246
298 290 19 312 301 292 293 291 298 313 191 310 308 297 134 156 142 129 37 20 11 358 350 349 350 349 345 341 338 326 322 328 317 312 310 310 308 306 314 294 284 290 258 247
284 293 325 287 295 295 288 302 316 298 305 282 286 283 157 173 154 135 32 3 358 353 351 351 352 345 339 334 331 326 320 317 317 305 305 306 305 305 305 308 286 274 297 252
283 358 300 284 278 300 297 12 316 304 310 302 317 290 169 181 179 130 18 4 354 350 353 352 344 340 335 329 325 320 315 313 312 304 299 300 302 297 302 304 312 292 268 293
295 294 289 281 300 331 297 342 303 290 285 298 277 242 258 166 200 103 9 359 354 352 348 346 340 334 329 325 322 317 311 312 308 303 295 296 294 295 295 297 300 318 280 279
268 282 255 288 265 266 303 287 299 275 268 263 142 260 237 183 181 356 357 355 352 347 343 336 334 328 325 324 320 316 310 309 307 301 298 292 291 291 293 289 293 304 298 277
195 216 179 243 259 210 261 307 313 298 232 276 152 317 248 142 128 36 356 353 346 342 336 333 330 328 325 324 322 318 317 310 308 302 298 292 290 285 288 285 285 297 313 296
275 267 186 141 269 342 316 291 263 288 295 294 313 254 294 135 142 10 352 351 344 336 332 330 328 326 325 323 321 316 318 317 312 309 304 295 291 282 283 282 278 287 301 302
252 248 124 32 341 285 139 215 14 288 261 278 237 239 142 159 215 350 342 347 340 331 329 328 326 327 326 326 323 318 315 311 304 299 291 290 299 288 282 280 277 280 291 305
359 284 173 117 190 159 264 123 180 201 270 269 268 299 273 188 340 340 345 339 333 328 326 328 328 328 329 327 325 323 320 314 310 309 301 289 284 285 296 281 274 275 283 293
168 236 149 149 209 226 186 217 222 285 241 263 299 283 114 5 358 345 333 334 330 330 329 329 328 330 328 329 326 323 321 318 314 309 311 306 299 277 276 293 278 272 277 283
187 248 253 246 46 285 273 244 215 217 216 226 266 275 281 224 355 343 333 330 329 328 326 324 328 327 328 328 327 324 322 318 313 310 306 305 303 296 283 275 285 284 270 274
173 206 250 236 244 181 216 222 234 234 308 245 251 256 155 210 328 337 328 325 325 326 322 325 325 327 328 330 329 325 321 318 314 311 308 303 303 304 294 272 272 274 277 282
184 228 229 255 295 101 215 215 216 213 240 259 240 270 274 291 313 324 319 321 321 321 323 324 324 326 327 330 329 324 321 319 315 312 306 304 303 297 299 288 269 262 264 279
218 252 241 261 273 278 259 255 222 221 236 244 269 262 278 298 315 319 313 319 321 320 325 324 323 323 328 328 328 326 322 320 317 312 307 301 302 301 297 297 285 264 256 257
205 251 291 273 267 274 271 257 247 246 242 246 258 271 275 285 311 309 315 318 315 320 323 322 319 322 324 323 326 325 320 319 318 311 308 305 302 299 292 295 290 278 261 254
198 203 197 263 8 318 280 246 238 240 232 235 246 256 279 291 309 311 311 309 313 319 319 319 315 317 319 321 323 324 318 318 317 313 308 307 306 298 296 292 292 282 270 267
193 183 165 267 17 256 315 323 239 248 225 225 245 261 275 298 300 308 299 316 321 319 318 317 317 319 325 327 324 327 321 317 317 312 310 310 306 300 290 287 284 283 275 260
212 178 196 230 205 302 297 221 212 204 246 232 241 258 270 290 307 294 335 329 316 316 316 317 318 321 328 327 328 332 322 318 318 315 313 309 307 304 300 285 284 283 269 250
201 205 208 162 223 243 93 133 105 132 273 218 214 210 267 300 295 305 328 325 319 317 321 324 327 331 338 336 333 334 325 321 321 318 316 312 307 302 295 285 277 279 259 252
190 193 221 215 231 269 245 155 132 166 259 155 185 242 256 247 278 304 318 321 322 323 326 333 334 337 342 341 335 337 329 324 323 321 322 324 325 319 309 291 271 274 256 240
178 181 198 207 218 254 187 145 202 184 156 204 233 247 238 273 297 307 313 318 326 328 331 334 338 339 346 346 337 342 334 330 330 333 340 340 337 331 324 300 268 267 253 249
203 199 184 200 206 129 172 195 209 193 220 254 248 239 279 294 299 307 315 323 327 328 329 335 340 339 346 348 348 344 342 339 342 347 347 341 336 334 326 313 276 267 241 254
228 216 231 184 224 240 216 235 250 232 246 252 270 262 283 290 301 313 320 327 330 331 336 341 341 341 345 349 351 351 348 350 352 349 346 345 349 349 349 318 278 264 249 249
184 174 210 246 253 251 245 237 236 235 256 266 258 269 281 292 308 318 324 329 329 333 338 342 341 340 346 350 351 355 351 356 358 357 348 354 355 356 350 345 317 261 258 263
190 181 200 218 219 222 225 240 236 233 246 247 253 264 273 292 307 317 326 328 331 337 341 343 345 345 348 351 354 357 353 360 3 4 357 2 359 1 5 2 336 305 283 277